This is the latest recevied weather packets stored in our database for station/object DM4WH-13. If no packets are shown the sender has not sent any weather packets the latest 10 day(s).
| Time | Temp. | Humidity | Pressure | Rain* | Wind** | Luminosity | Snow |
|---|---|---|---|---|---|---|---|
| 1777701625 | 15° C | 53% | 1026.1 hPa | 0 mm | 0 m/s | - | - |
| 1777701312 | 15° C | 51% | 1026.1 hPa | 0 mm | 0.45 m/s, 287° | - | - |
| 1777701025 | 13.89° C | 53% | 1026.1 hPa | 0 mm | 0 m/s | - | - |
| 1777700712 | 13.89° C | 55% | 1026.1 hPa | 0 mm | 0 m/s | - | - |
| 1777700425 | 13.89° C | 55% | 1026.1 hPa | 0 mm | 0 m/s | - | - |
| 1777700112 | 12.78° C | 56% | 1026.1 hPa | 0 mm | 0 m/s | - | - |
| 1777699825 | 12.78° C | 58% | 1026.1 hPa | 0 mm | 0.45 m/s, 287° | - | - |
| 1777699513 | 12.78° C | 59% | 1026.1 hPa | 0 mm | 0 m/s | - | - |
| 1777699225 | 12.22° C | 59% | 1026.1 hPa | 0 mm | 0 m/s | - | - |
| 1777698913 | 11.11° C | 62% | 1026.2 hPa | 0 mm | 0 m/s | - | - |
| 1777698625 | 11.11° C | 64% | 1026.1 hPa | 0 mm | 0 m/s | - | - |
| 1777698313 | 11.11° C | 64% | 1026.1 hPa | 0 mm | 0 m/s | - | - |
| 1777698025 | 11.11° C | 65% | 1026.1 hPa | 0 mm | 0 m/s | - | - |
| 1777697712 | 10° C | 64% | 1026.1 hPa | 0 mm | 0 m/s | - | - |
| 1777697425 | 8.89° C | 66% | 1026.1 hPa | 0 mm | 0 m/s | - | - |
| 1777697113 | 7.22° C | 73% | 1026.1 hPa | 0 mm | 0 m/s | - | - |
| 1777696825 | 6.11° C | 80% | 1026.1 hPa | 0 mm | 0 m/s | - | - |
| 1777696513 | 6.11° C | 81% | 1026.1 hPa | 0 mm | 0 m/s | - | - |
| 1777696225 | 6.11° C | 81% | 1026 hPa | 0 mm | 0 m/s | - | - |
| 1777695913 | 6.11° C | 81% | 1026 hPa | 0 mm | 0 m/s | - | - |
| 1777695625 | 6.11° C | 81% | 1026.1 hPa | 0 mm | 0 m/s | - | - |
| 1777695312 | 6.11° C | 81% | 1026.1 hPa | 0 mm | 0 m/s | - | - |
| 1777695037 | 5° C | 82% | 1026.1 hPa | 0 mm | 0 m/s | - | - |
| 1777694725 | 5° C | 83% | 1026.1 hPa | 0 mm | 0.45 m/s, 287° | - | - |
| 1777694413 | 5° C | 84% | 1026.1 hPa | 0 mm | 0 m/s | - | - |
* Rain latest hour (hover to see other rain measurements)
** Current wind speed in m/s (hover to see current wind gust speed)